Location: Carabito
(9.8355°N, 67.9249°W)
Time: 12:12:52
(UTC+00:00)

Cosmos 1464 Rocket - Pass Details

Date: 23 May 2024
Orbit: 951 x 1002 km, 82.9° (Epoch: 20 June)

Event Time Altitude Azimuth Distance (km) Brightness Sun altitude
Rises 01:00:43 0° 354° (N) 3,658 7.5 -30.5°
Reaches altitude 10° 01:03:14 10° 353° (N) 2,704 6.7 -31.1°
Enters shadow 01:08:43 69° 326° (NW) 1,021 4.1 -32.2°
